STARLINK-3879, 52473

Orbit data source: Space-Track

STARLINK-3879, 52473 is a payload satellite owned by SpaceX/Seattle (US) in LEO that was launched on Fri, 06 May 2022 UTC via an FALCON 9 launch vehicle from the Air Force Eastern Test Range (AFETR). Payload-class satellites include a variety of spacecraft equipped with specific instruments for various scientific and technological missions. These include communications satellites like Starlink; space stations such as the ISS; scientific satellites like the Hubble; Earth observation satellites from companies like Planet Labs, Umbra, and HawkEye 360; GPS; miniature CubeSats for education and research; and military/defense satellites.

Loading next visibility...
Identifier
52473, 2022-049Y
Orbit
LEO
Country
Flag of USUS
Related business
Manufacturer
SpaceX/Seattle
Mission
Operational Commercial Communications
Bus & Motor
STARLINK, Unknown motor
Mass
297 kg wet, ~220 kg dry
Launch date (UTC)
2022-05-06 (4 years ago)
Launch vehicle
FALCON 9
Launch site
Air Force Eastern Test Range (AFETR)
Object type
Payload
Rocket body
Debris
Shape & HBR
Box + 1 Pan, 10.1 m
Radar Cross Section
13.562 m², Large (>1 m²)

Expand to show TLE details & history
Last TLE update: 11 hours ago

TLE from 11 hours ago
0 STARLINK-3879
1 52473U 22049Y   25347.00459808  .00000714  00000-0  62960-4 0  9992
2 52473  53.2181  88.2660 0001219  88.7077 271.4054 15.08835525199164
Epoch: 2025-12-13T00:06Z
TLE epoch observation values (Epoch: 2025-12-13T00:06:37.274Z)
Latitude
-0.00007°
Longitude
4.67255°
Altitude
540.634 km
Speed
7.593 km/s
True Right ascension
05h 53m 03s
True Declination
0° 00' 00"
Sunlit
Object was in full shadow at epoch
Visualization orbit readout
Latitude
Unknown
Longitude
Unknown
Altitude
Unknown
Speed
Unknown
Apparent Right ascension
Unknown
Apparent Declination
Unknown
Sunlit
N/A
Visualization observer readout
Local Sidereal Time
09:14:00
Azimuth
Unknown
Elevation
Unknown
Doppler factor
Unknown
Orbital elements
Apogee altitude
540.845 km
Perigee altitude
539.159 km
Semi-major axis
6,918.139 km
Eccentricity
0.00012
Inclination
53.2181°
RAAN
88.266°
Arg. of periapsis
88.7077°
True anomaly
271.39144°
Mean anomaly
271.4054°
Eccentric anomaly
271.39842°
Mean motion
3.77189 °/min
Orbital period
95.44 mins
BSTAR
0.00006296
Loading maneuver chart data...
Computing Atmospheric mass density...
Loading historical data...
Loading historical data...
Loading historical data...
Loading historical data...
Loading historical data...
Loading historical data...
Loading historical data...

Documentation

Showing up to 5 results
|